Flag for U.S.A. Weather past 2 weeks in San Diego, California, U.S.A.

Now
69 °F

Passing clouds.


Feels Like: 69 °F
Forecast: 66 / 73 °F
Wind: 6 mph from Northeast

Location: San Diego - North Island

Current Time: Oct 25, 2014 at 3:44:30 AM

Latest Report: Oct 25, 2014 at 2:52 AM


Visibility: 10 mi

Pressure: 29.98 "Hg

Humidity: 90%

Dew point: 66 °F

Location of San DiegoLocation

Historic Weather in San Diego — Graph

°F

San Diego temperature yesterday

Maximum temperature yesterday: 83 °F (at 2:52 PM)
Minimum temperature yesterday: 60 °F (at 6:52 AM)
Average temperature yesterday: 72 °F

Past Weeks' High & Low Weather Summary

 TemperatureHumidityPressure
High83 °F (Oct 24, 2:52 PM)97% (Oct 23, 3:52 AM)30.02 "Hg (Oct 23, 3:52 AM)
Low60 °F (Oct 24, 6:52 AM)29% (Oct 24, 10:52 AM)29.83 "Hg (Oct 21, 3:52 PM)
Average70 °F73%29.92 "Hg
* Reported Oct 10 1:52 AM — Oct 25 1:52 AM, San Diego, Weather by CustomWeather, © 2014

Note: Actual official high and low records may vary slightly from our data, if they occured in-between our weather recording intervals... More about our weather records

Advertising

San Diego weather history for previous 24 hours

 ConditionsComfort  
Time TempWeatherWind HumidityBarometerVisibility
1:52 AM
Oct 25
69 °FPassing clouds.5 mph90%30.00 "Hg8 mi
12:52 AM70 °FPassing clouds.6 mph90%30.00 "Hg7 mi
11:52 PM
Oct 24
70 °FPassing clouds.3 mph81%29.99 "Hg10 mi
10:52 PM71 °FClear.6 mph84%29.98 "Hg10 mi
9:52 PM72 °FPassing clouds.6 mph81%29.96 "Hg10 mi
8:52 PM71 °FPassing clouds.No wind63%29.95 "Hg10 mi
7:52 PM69 °FPassing clouds.No wind63%29.94 "Hg9 mi
6:52 PM76 °FPassing clouds.3 mph50%29.92 "Hg9 mi
5:52 PM76 °FSunny.7 mph47%29.91 "Hg10 mi
4:52 PM77 °FSunny.6 mph60%29.91 "Hg10 mi
3:52 PM79 °FSunny.7 mph50%29.91 "Hg10 mi
2:52 PM83 °FSunny.6 mph31%29.91 "Hg10 mi
1:52 PM81 °FSunny.7 mph35%29.93 "Hg10 mi
12:52 PM82 °FSunny.5 mph33%29.94 "Hg10 mi
11:52 AM80 °FSunny.5 mph29%29.96 "Hg10 mi
10:52 AM80 °FSunny.6 mph29%29.98 "Hg10 mi
9:52 AM77 °FPassing clouds.No wind42%29.98 "Hg10 mi
8:52 AM70 °FPassing clouds.No wind66%29.98 "Hg10 mi
7:52 AM64 °FPassing clouds.No wind84%29.97 "Hg10 mi
6:52 AM60 °FPassing clouds.No wind86%29.95 "Hg9 mi
5:52 AM61 °FPassing clouds.No wind90%29.95 "Hg8 mi
4:52 AM63 °FPassing clouds.No wind87%29.94 "Hg7 mi
3:52 AM66 °FPassing clouds.3 mph84%29.94 "Hg8 mi
Weather by CustomWeather, © 2014

See weather overviewHow to use our weather pages